0 HST 1 20580U 90037B 25267.20263805 .00010942 00000-0 39935-3 0 9990 2 20580 28.4657 93.2358 0002770 77.0094 283.0810 15.26459178747820 0 ISS (ZARYA) 1 25544U 98067A 25266.24686783 .00027783 00000-0 48333-3 0 9996 2 25544 51.6338 181.0318 0004269 9.4814 350.6255 15.50560509530377 0 CXO 1 25867U 99040B 25269.92889251 .00000947 00000-0 00000-0 0 9998 2 25867 51.5121 125.4703 8263672 310.4534 0.4622 0.37804985 16321